Total_Precipitation_Accumulation
0.17 0.16 0.24 0.19 0.16 0.20 0.23 0.26 0.25 0.22 0.22 0.23 0.21 0.22 0.23 0.24 0.27 0.32 0.33 0.34 0.36 0.42 0.44 0.45 0.44 0.46 0.48 0.50 0.51 0.51 0.50 0.50 0.55 0.61 0.66 0.65 0.66 0.94 1.28 1.39 1.37 0.92 0.90
0.06 0.11 0.19 0.18 0.16 0.16 0.20 0.23 0.22 0.21 0.21 0.22 0.20 0.20 0.22 0.23 0.25 0.27 0.30 0.33 0.36 0.37 0.36 0.39 0.41 0.39 0.35 0.33 0.35 0.36 0.43 0.52 0.66 0.75 0.70 0.58 0.70 0.91 1.21 1.27 1.33 0.82 0.76
0.03 0.06 0.12 0.16 0.15 0.15 0.18 0.20 0.21 0.22 0.20 0.20 0.18 0.22 0.26 0.26 0.23 0.25 0.29 0.29 0.29 0.28 0.29 0.33 0.36 0.31 0.24 0.23 0.27 0.33 0.43 0.61 0.79 0.93 1.04 0.60 0.49 0.90 1.19 1.17 0.94 0.65 0.65
0.04 0.04 0.06 0.11 0.13 0.13 0.15 0.17 0.21 0.22 0.21 0.21 0.21 0.23 0.26 0.27 0.24 0.24 0.25 0.24 0.23 0.23 0.25 0.28 0.29 0.23 0.20 0.20 0.24 0.32 0.42 0.65 0.89 1.18 1.22 0.66 0.38 0.65 0.94 0.84 0.71 0.61 0.63
0.08 0.07 0.09 0.10 0.10 0.13 0.13 0.15 0.21 0.24 0.23 0.24 0.26 0.26 0.27 0.31 0.28 0.25 0.25 0.25 0.23 0.22 0.23 0.24 0.24 0.19 0.17 0.20 0.25 0.33 0.44 0.62 0.89 1.07 0.90 0.79 0.70 0.64 0.70 0.71 0.73 0.72 0.68
0.13 0.09 0.10 0.13 0.15 0.15 0.13 0.14 0.18 0.23 0.23 0.24 0.26 0.30 0.30 0.34 0.36 0.30 0.25 0.25 0.24 0.22 0.21 0.18 0.17 0.19 0.19 0.22 0.28 0.36 0.50 0.68 0.78 0.63 0.57 0.58 0.66 0.73 0.65 0.82 0.92 0.92 0.81
0.20 0.14 0.13 0.17 0.17 0.17 0.16 0.18 0.19 0.20 0.20 0.20 0.21 0.22 0.26 0.30 0.36 0.32 0.28 0.26 0.24 0.22 0.20 0.18 0.18 0.20 0.21 0.22 0.28 0.38 0.54 0.75 0.68 0.48 0.57 0.64 0.58 0.57 0.67 0.94 1.14 1.13 0.97
0.41 0.27 0.24 0.24 0.22 0.20 0.19 0.21 0.21 0.20 0.17 0.17 0.17 0.18 0.24 0.26 0.28 0.31 0.30 0.27 0.24 0.21 0.20 0.19 0.19 0.21 0.24 0.26 0.29 0.37 0.51 0.66 0.55 0.51 0.49 0.47 0.44 0.52 0.71 0.94 1.13 1.22 1.09
0.64 0.47 0.39 0.31 0.26 0.26 0.26 0.25 0.23 0.21 0.21 0.19 0.19 0.22 0.30 0.32 0.32 0.34 0.32 0.29 0.28 0.27 0.23 0.19 0.18 0.22 0.24 0.25 0.27 0.35 0.46 0.64 0.62 0.65 0.48 0.48 0.61 0.69 0.87 1.05 1.08 1.13 1.08
0.90 0.69 0.54 0.51 0.47 0.39 0.32 0.31 0.31 0.28 0.28 0.26 0.25 0.30 0.35 0.36 0.36 0.38 0.35 0.34 0.36 0.37 0.33 0.30 0.25 0.24 0.26 0.27 0.30 0.37 0.47 0.49 0.50 0.56 0.53 0.47 0.68 0.83 0.99 1.04 1.09 1.08 1.08
1.38 0.98 0.78 0.70 0.67 0.63 0.53 0.46 0.48 0.47 0.44 0.40 0.44 0.48 0.54 0.60 0.59 0.67 0.58 0.62 0.57 0.60 0.58 0.56 0.48 0.43 0.39 0.36 0.43 0.54 0.52 0.57 0.77 0.80 0.63 0.65 0.77 0.97 1.13 1.13 1.15 1.14 1.14
1.57 1.14 1.00 0.83 0.73 0.73 0.83 0.96 0.89 0.78 0.76 0.74 0.84 0.91 1.08 1.17 1.12 0.89 0.92 1.07 1.14 1.25 1.18 1.11 1.04 0.81 0.69 0.64 1.03 1.27 0.68 0.60 0.75 0.86 0.75 0.71 0.92 1.24 1.40 1.29 1.19 1.15 1.07
1.50 1.24 1.14 1.12 1.05 0.95 1.07 1.21 1.21 1.13 1.15 1.09 1.10 1.23 1.35 1.26 1.18 1.10 1.15 1.34 1.44 1.58 1.54 1.70 1.74 1.44 1.40 1.42 1.59 1.53 0.96 0.92 0.87 0.78 0.85 0.96 1.08 1.38 1.66 1.49 1.28 1.18 1.08
1.96 1.67 1.50 1.53 1.37 1.27 1.25 1.36 1.37 1.35 1.27 1.21 1.30 1.33 1.50 1.60 1.53 1.51 1.60 1.61 1.68 1.85 2.19 2.04 2.19 2.10 1.97 1.84 1.79 1.64 1.36 1.35 1.28 1.18 1.42 1.27 1.18 1.46 1.79 1.67 1.45 1.34 1.25
2.51 2.41 2.12 1.86 1.66 1.60 1.70 1.66 1.58 1.57 1.53 1.57 1.68 1.68 1.73 1.91 1.91 1.95 1.89 1.89 1.75 1.95 2.28 2.38 2.27 2.49 2.53 2.31 2.07 1.86 1.79 1.64 1.50 1.50 1.57 1.48 1.38 1.46 1.73 1.84 1.69 1.58 1.47
2.70 2.78 2.57 2.33 2.15 2.10 2.21 2.25 2.09 1.91 1.99 2.05 2.02 1.91 1.95 2.16 2.36 2.39 2.24 2.17 2.03 2.04 2.24 2.37 2.40 2.88 2.76 2.60 2.14 1.92 1.86 1.84 1.70 1.66 1.68 1.76 1.48 1.35 1.47 1.77 1.92 1.88 1.79
3.08 2.99 2.92 2.84 2.71 2.73 2.67 2.61 2.42 2.33 2.18 2.15 2.20 2.27 2.23 2.24 2.47 2.52 2.50 2.35 2.27 2.24 2.38 2.41 2.60 2.84 2.57 2.45 2.17 2.05 1.94 1.83 1.67 1.66 1.83 2.00 1.77 1.51 1.36 1.47 1.77 1.93 1.97
3.44 3.40 3.34 3.18 3.16 3.13 3.07 2.94 2.78 2.65 2.36 2.14 2.13 2.28 2.32 2.35 2.48 2.56 2.38 2.26 2.46 2.55 2.62 2.74 2.81 2.85 2.71 2.63 2.44 2.14 1.96 1.89 1.50 1.47 1.54 1.61 1.75 1.53 1.58 1.69 1.83 1.90 2.08
3.92 4.04 3.99 3.90 3.65 3.41 3.34 3.31 3.32 3.23 2.88 2.50 2.38 2.36 2.38 2.27 2.30 2.45 2.31 2.37 2.54 2.63 2.66 2.43 2.79 2.78 2.79 2.72 2.29 2.03 1.77 1.62 1.49 1.27 1.25 1.20 1.33 1.37 1.44 1.55 1.69 1.69 1.99
4.15 4.49 4.36 4.22 4.15 4.07 3.96 3.72 3.69 3.46 3.14 2.93 2.77 2.71 2.53 2.38 2.37 2.52 2.37 2.45 2.56 2.65 2.64 2.66 2.83 2.80 2.65 2.65 2.13 1.86 1.61 1.30 1.32 1.25 1.06 1.08 1.14 1.05 1.13 1.33 1.61 1.38 1.72
4.32 4.62 4.67 4.81 4.70 4.45 4.06 3.63 3.43 3.33 3.26 3.06 2.81 2.57 2.47 2.41 2.46 2.65 2.53 2.66 2.63 2.49 2.46 2.62 2.80 2.63 2.41 2.54 2.43 1.86 1.40 1.15 1.14 1.09 1.08 1.15 1.07 1.05 1.19 1.47 1.59 1.50 1.40
3.95 4.32 4.42 4.20 4.06 3.94 3.69 3.53 3.48 3.63 3.33 3.01 2.80 2.55 2.37 2.33 2.38 2.33 2.42 2.32 2.34 2.44 2.44 2.49 2.67 2.49 2.12 2.26 2.32 2.14 1.58 1.33 1.08 0.89 1.05 1.07 1.05 1.16 1.20 1.33 1.60 1.77 1.63
2.97 3.19 3.35 3.48 3.34 3.20 3.14 3.13 3.20 3.36 3.08 2.76 2.57 2.43 2.21 2.08 2.03 2.06 2.06 2.14 2.38 2.41 2.38 2.43 2.45 2.30 2.00 1.97 2.09 2.22 1.76 1.38 1.10 0.81 0.81 0.96 1.14 1.30 1.27 1.41 1.52 1.68 1.76
2.59 2.72 2.77 2.79 2.87 2.82 2.80 2.71 2.58 2.49 2.35 2.21 2.20 2.15 2.12 2.01 1.90 1.85 1.85 1.91 1.97 1.98 2.05 1.89 2.00 2.13 2.14 1.94 1.98 1.96 1.81 1.64 1.48 1.11 0.89 0.90 1.07 1.18 1.26 1.24 1.25 1.38 1.66
1.96 2.17 2.30 2.38 2.46 2.50 2.48 2.37 2.34 2.17 2.12 2.11 2.06 2.00 1.91 1.84 1.81 1.75 1.67 1.65 1.57 1.58 1.70 1.70 1.81 1.85 1.85 1.82 1.84 1.88 1.84 1.79 1.70 1.56 1.27 1.16 1.10 0.96 1.02 1.12 1.17 1.24 1.50
1.69 1.84 1.98 2.08 2.10 2.17 2.20 2.17 2.12 2.05 2.02 1.97 1.88 1.82 1.78 1.76 1.66 1.56 1.52 1.53 1.46 1.47 1.55 1.58 1.66 1.62 1.66 1.72 1.73 1.78 1.83 1.76 1.77 1.78 1.49 1.38 1.29 1.06 1.04 1.01 1.04 1.10 1.31